This is the latest recevied weather packets stored in our database for station/object W1RCY. If no packets are shown the sender has not sent any weather packets the latest 1 day(s).
| Time | Temp. | Humidity | Pressure | Rain* | Wind** | Luminosity | Snow |
|---|---|---|---|---|---|---|---|
| 1778010898 | 27.22° C | 37% | 1002.3 hPa | 0 mm | 2.24 m/s, 191° | 605 W/m² | - |
| 1778010595 | 27.22° C | 36% | 1002.6 hPa | 0 mm | 4.47 m/s, 192° | 170 W/m² | - |
| 1778010293 | 27.22° C | 36% | 1002.6 hPa | 0 mm | 5.81 m/s, 192° | 260 W/m² | - |
| 1778010001 | 27.22° C | 36% | 1002.3 hPa | 0 mm | 7.6 m/s, 162° | 165 W/m² | - |
| 1778009690 | 27.22° C | 36% | 1002.3 hPa | 0 mm | 6.71 m/s, 334° | 573 W/m² | - |
| 1778009387 | 26.67° C | 36% | 1002.7 hPa | 0 mm | 8.94 m/s, 175° | 627 W/m² | - |
| 1778009086 | 26.67° C | 37% | 1002.6 hPa | 0 mm | 8.49 m/s, 164° | 277 W/m² | - |
| 1778008783 | 27.22° C | 37% | 1002.6 hPa | 0 mm | 8.49 m/s, 182° | 166 W/m² | - |
| 1778008482 | 27.22° C | 38% | 1003 hPa | 0 mm | 4.02 m/s, 252° | 664 W/m² | - |
| 1778008178 | 27.78° C | 37% | 1002.8 hPa | 0 mm | 5.81 m/s, 180° | 155 W/m² | - |
| 1778007873 | 27.22° C | 37% | 1003.1 hPa | 0 mm | 6.26 m/s, 195° | 660 W/m² | - |
| 1778007569 | 26.67° C | 38% | 1003.2 hPa | 0 mm | 5.81 m/s, 174° | 768 W/m² | - |
| 1778007267 | 27.22° C | 37% | 1003.4 hPa | 0 mm | 2.68 m/s, 170° | 223 W/m² | - |
| 1778006963 | 27.22° C | 36% | 1003.5 hPa | 0 mm | 4.02 m/s, 127° | 505 W/m² | - |
| 1778006660 | 27.22° C | 36% | 1003.5 hPa | 0 mm | 12.07 m/s, 181° | 412 W/m² | - |
| 1778006356 | 26.67° C | 37% | 1003.5 hPa | 0 mm | 9.39 m/s, 165° | 258 W/m² | - |
| 1778006053 | 26.67° C | 38% | 1003.6 hPa | 0 mm | 4.92 m/s, 162° | 241 W/m² | - |
| 1778005750 | 26.67° C | 39% | 1003.8 hPa | 0 mm | 3.58 m/s, 185° | 656 W/m² | - |
| 1778005447 | 26.67° C | 39% | 1003.7 hPa | 0 mm | 3.13 m/s, 193° | 219 W/m² | - |
| 1778005143 | 26.11° C | 40% | 1003.7 hPa | 0 mm | 7.6 m/s, 176° | 252 W/m² | - |
| 1778004841 | 27.22° C | 39% | 1003.9 hPa | 0 mm | 6.71 m/s, 181° | 751 W/m² | - |
| 1778004537 | 27.22° C | 38% | 1004 hPa | 0 mm | 4.92 m/s, 202° | 189 W/m² | - |
| 1778004234 | 26.67° C | 39% | 1004 hPa | 0 mm | 3.58 m/s, 190° | 742 W/m² | - |
| 1778003930 | 26.67° C | 40% | 1003.8 hPa | 0 mm | 4.92 m/s, 177° | 301 W/m² | - |
| 1778003627 | 26.67° C | 40% | 1004 hPa | 0 mm | 3.58 m/s, 181° | 565 W/m² | - |
* Rain latest hour (hover to see other rain measurements)
** Current wind speed in m/s (hover to see current wind gust speed)